Weather Roundup
Issued by NWS

Home | Current Version | Previous Version | Text Only | Print | Product List | Glossary On
Versions: 1 2 3 4 5 6 7 8 9 10 11 12 13 14 15 16 17 18 19 20 21 22 23 24 25 26 27 28 29 30 31 32 33 34 35 36 37 38 39 40 41 42 43 44 45 46 47 48 49 50
432
NZUS93 KARX 290759
HRRWXR

CURRENT HOURLY OBSERVATIONS ACROSS
MUCH OF THE UPPER MISSISSIPPI VALLEY
NATIONAL WEATHER SERVICE LA CROSSE WI
300 AM CDT MON MAY 29 2017


...SOUTHEAST MINNESOTA...


CITY           SKY/WX    TMP DP  RH WIND       PRES   REMARKS
ROCHESTER      CLEAR     53  44  71 W15       29.75F
ROCHESTER/MAYO FAIR      55  43  64 W14       29.74S
WINONA         CLEAR     55  43  62 W6        29.72S
AUSTIN         CLEAR     54  45  71 W13       29.77S
ALBERT LEA     CLEAR     57  46  67 W12G17    29.79R
DODGE CENTER   CLEAR     54  43  66 W16       29.75S
PRESTON        CLEAR     53  42  67 W13       29.76S
OWATONNA       CLEAR     54  45  71 W17G25    29.77R
FARIBAULT      PTCLDY    54  46  76 W13G21    29.76R
$$

...ELSEWHERE IN MINNESOTA...


CITY           SKY/WX    TMP DP  RH WIND       PRES   REMARKS
MINNEAPOLIS    CLOUDY    56  46  69 W14G20    29.72R
INTNL FALLS    LGT RAIN  51  48  89 NW9       29.64R
DULUTH         CLOUDY    52  49  89 W12       29.62S
RED WING       PTCLDY    52  48  87 W6        29.70S
REDWOOD FALLS  CLEAR     52  43  71 W13       29.80F
MANKATO        CLEAR     55  45  68 W14       29.79S
WORTHINGTON    PTCLDY    50  45  83 W7        29.87S
FAIRMONT       CLEAR     54  44  69 NW15      29.83S
$$

...SOUTHWEST WISCONSIN...


CITY           SKY/WX    TMP DP  RH WIND       PRES   REMARKS
LA CROSSE      CLEAR     57  47  69 CALM      29.72F
PRAIRIE DU CHI MOCLDY    54  45  71 CALM      29.76R
BOSCOBEL       PTCLDY    54  47  77 SW5       29.75S
LONE ROCK      NOT AVBL
PLATTEVILLE    CLEAR     55  47  74 W8        29.77S
FORT MC COY    CLEAR     44  44  99 CALM      29.73S
CAMP DOUGLAS   CLEAR     45  45  99 CALM      29.71S
MAUSTON-NEW LI SUNNY     49  48  94 CALM      29.70F
VIROQUA        FAIR      54  44  70 CALM      29.74S
WIS DELLS      CLEAR     47  43  85 SW3       29.71F
$$

...ELSEWHERE IN WISCONSIN...


CITY           SKY/WX    TMP DP  RH WIND       PRES   REMARKS
MILWAUKEE      CLEAR     59  49  69 SW7       29.73S
MADISON        CLEAR     59  47  64 SW6       29.71F
GREEN BAY      CLEAR     56  49  77 SW6       29.68S
EAU CLAIRE     NOT AVBL
BLACK RVR FLS  FAIR      49  49 100 CALM      29.71S
MEDFORD        CLOUDY    51  47  83 W5        29.67F
WAUSAU         CLOUDY    52  48  86 W8        29.66S
WIS RAPIDS     PTCLDY    51  49  92 SW5       29.70F
MARSHFIELD     PTCLDY    50  46  86 W6        29.68S
RICE LAKE      CLOUDY    52  47  84 SW6       29.70S
$$

...NORTHEAST IOWA...


CITY           SKY/WX    TMP DP  RH WIND       PRES   REMARKS
WATERLOO       CLEAR     54  43  66 W7        29.79R
DUBUQUE        PTCLDY    54  45  71 CALM      29.77F
DECORAH        PTCLDY    55  43  62 CALM      29.75S
MASON CITY     PTCLDY    57  44  62 NW20      29.82R
CHARLES CITY   CLEAR     57  41  54 W9        29.79R
OELWEIN        PTCLDY    55  45  67 CALM      29.78F
$$

...ELSEWHERE IN IOWA...


CITY           SKY/WX    TMP DP  RH WIND       PRES   REMARKS
DES MOINES     PTCLDY    57  46  66 SW3       29.84R
IOWA CITY      CLEAR     56  47  71 CALM      29.82R
FORT DODGE     CLEAR     50  43  76 SW3       29.85S
MARSHALLTOWN   CLEAR     53  45  74 W6        29.81R
CEDAR RAPIDS   CLEAR     52  47  83 W6        29.79S
$$

...NORTHERN ILLINOIS...


CITY           SKY/WX    TMP DP  RH WIND       PRES   REMARKS
CHICAGO-OHARE  CLOUDY    63  50  62 SW5       29.75F
CHICAGO-MIDWAY CLOUDY    64  52  64 SW7       29.76F
MOLINE         CLEAR     58  48  69 S3        29.81R
ROCKFORD       CLEAR     56  51  84 S5        29.77S
PEORIA         CLEAR     60  51  72 W5        29.84R
$$

NOTE: "FAIR" INDICATES FEW OR NO CLOUDS BELOW 12,000 FEET WITH NO
SIGNIFICANT WEATHER AND/OR OBSTRUCTIONS TO VISIBILITY. WIND
SPEEDS ARE IN MILES-PER-HOUR.




USA.gov is the U.S. government's official web portal to all federal, state and local government web resources and services.